Regional Weather Roundup
Issued by NWS Portland, ME

Current Version | Previous Version | Text Only | Print | Product List | Glossary Off
Versions: 1 2 3 4 5 6 7 8 9 10 11 12 13 14 15 16 17 18 19 20 21 22 23 24 25 26 27 28 29 30 31 32 33 34 35 36 37 38 39 40 41 42 43 44 45 46 47 48 49 50
000 ASUS41 KGYX 241405 RWRGYX WEATHER ROUNDUP FOR MAINE AND NEW HAMPSHIRE NATIONAL WEATHER SERVICE GRAY ME 1000 AM EDT FRI MAR 24 2017 MEZ002-005-006-010-012-015-018-020-021-024-026-027-029-241500- MAINE CITY SKY/WX TMP DP RH WIND PRES REMARKS PORTLAND CLOUDY 34 15 46 S9 30.42F SANFORD CLOUDY 30 14 51 SW6 30.41F BAR HARBOR CLOUDY 31 14 49 S16 30.44F WCI 20 WISCASSET CLOUDY 34 14 43 S9 30.44F ROCKLAND MOSUNNY 33 14 45 S13 30.43F FRYEBURG CLOUDY 29 4 34 S5 30.38F LEWISTONAUBURN CLOUDY 31 15 52 S10 30.40F AUGUSTA CLOUDY 29 10 45 S9 30.40F WATERVILLE CLOUDY 29 12 49 S7 30.36F BANGOR CLOUDY 27 9 46 S9 30.40F GREENVILLE N/A 21 4 47 S7 30.24F MILLINOCKET CLOUDY 23 3 42 VRB5 30.36F HOULTON CLOUDY 23 2 40 SW12 30.33F WCI 12 PRESQUE ISLE CLOUDY 18 3 52 SE5 30.31F FRENCHVILLE CLOUDY 13 -3 49 SE6 30.23F CARIBOU CLOUDY 18 1 47 S7 30.28F $$ NHZ002-005-008-009-011-012-014-241500- NEW HAMPSHIRE CITY SKY/WX TMP DP RH WIND PRES REMARKS PORTSMOUTH CLOUDY 33 10 39 S7 30.41F ROCHESTER CLOUDY 30 9 41 S6 30.40F NASHUA CLOUDY 32 12 43 SE3 30.40F MANCHESTER CLOUDY 31 9 39 S5 30.39F CONCORD CLOUDY 30 11 45 S6 30.39F LACONIA SNOW 25 22 88 S9G20 30.37F VSB 1/4 PLYMOUTH SNOW 24 20 85 NE3 30.37F VSB 1/4 BERLIN CLOUDY 21 6 52 CALM 30.27F WHITEFIELD LGT SNOW 24 13 62 W3 30.27F JAFFREY CLOUDY 32 14 47 S9 30.32F KEENE CLOUDY 32 16 51 S7 30.36F LEBANON LGT SNOW 26 23 88 W5 30.34F VSB 3/4 MT WASHINGTON SNOW 10 10 100 SW45G62 N/A VSB 1/16WCI -15 $$ VTZ005-007-008-241500- VERMONT CITY SKY/WX TMP DP RH WIND PRES REMARKS ST JOHNSBURY N/A 24 19 81 MISG 30.29F MONTPELIER LGT SNOW 23 21 92 S10 30.30F FOG WCI 12 BURLINGTON SNOW 29 26 89 S13 30.25F VSB 1/2 WCI 19 $$ MAZ007-012-024-CTZ003-RIZ002-NYZ038-NYZ072-241500- SOUTHERN NEW ENGLAND AND NY CITY SKY/WX TMP DP RH WIND PRES REMARKS BOSTON CLOUDY 36 21 54 S10 30.44F WORCESTER CLOUDY 31 19 61 S12 30.35F NANTUCKET CLOUDY 39 23 52 S14 30.49F PROVIDENCE CLOUDY 40 26 57 S14 30.44F HARTFORD CLOUDY 37 22 54 S16G24 30.39F ALBANY CLOUDY 36 12 37 S14 30.31F NEW YORK CITY CLOUDY 44 25 47 SW15 30.45S $$ ANZ081-ANZ082-ANZ150-NHZ014-MEZ023>029-241500- COASTAL MARINE OBSERVATIONS STATION/POSITION TIME TEMP WIND PRES WAVE AIR SEA DIR/SP/G HT/PER (UTC) (F) (DEG/KT/KT) (MB) (FT/S) MOUNT DESERT ROC 1400 31 1031.7S MATINICUS ROCK 1300 32 190/ 18/ 20 1031.3R ISLE OF SHOALS 1300 33 220/ 17/ 21 1031.1F JEFFREYS LEDGE 1306 41 N/A 2/ 3 CASHES LEDGE BUO 1250 33 39 1031.9 1/11 GEORGES BANK BUO 1250 35 39 1034.8 6/ 7 $$ .............KEY.............. WCI - WIND CHILL TC - TEMPERATURE IN CELSIUS VSB - VISIBILITY IN MILES HX - HEAT INDEX FAIR- INDICATES FEW OR NO CLOUDS BELOW 12,000 FT, WITH NO SIGNIFICANT WEATHER AND/OR OBSTRUCTIONS TO VISIBILITY.

USA.gov is the U.S. government's official web portal to all federal, state and local government web resources and services.